CW0060 Weather Reports


Display with metric or nautical units.
time (UTC)temp
F
wind
direction
speed
MPH
gust
MPH
rain 1hr
in
rain 24hr
in
rain mn
in
humidity
%
barometer
mb
20260903155705 74 229 8.0 18.0 0.00 0.00 0.00 52 1018.9
20260903155204 74 276 8.0 24.0 0.00 0.00 0.00 52 1019.1
20260903154705 74 277 11.0 24.0 0.00 0.00 0.00 52 1019.0
20260903153706 74 276 13.0 19.0 0.00 0.00 0.00 51 1018.9
20260903153205 74 234 12.0 19.0 0.00 0.00 0.00 51 1019.0
20260903152705 74 221 10.0 19.0 0.00 0.00 0.00 51 1018.9
20260903152208 75 255 8.0 15.0 0.00 0.00 0.00 51 1019.0
20260903151705 75 257 8.0 15.0 0.00 0.00 0.00 51 1019.0
20260903151205 75 285 8.0 22.0 0.00 0.00 0.00 51 1018.8
20260903150706 75 262 9.0 22.0 0.00 0.00 0.00 50 1018.9
20260903145706 75 248 10.0 17.0 0.00 0.00 0.00 50 1018.8
20260903145206 75 259 10.0 17.0 0.00 0.00 0.00 50 1018.8
20260903144705 75 224 10.0 17.0 0.00 0.00 0.00 50 1018.7
20260903144205 76 274 11.0 16.0 0.00 0.00 0.00 49 1018.8
20260903143707 76 219 9.0 15.0 0.00 0.00 0.00 49 1018.8
20260903143205 76 253 8.0 16.0 0.00 0.00 0.00 50 1018.8
20260903142705 76 257 9.0 21.0 0.00 0.00 0.00 49 1018.9
20260903141705 75 255 12.0 21.0 0.00 0.00 0.00 49 1019.0
20260903141205 75 265 13.0 21.0 0.00 0.00 0.00 49 1018.8
20260903140705 76 253 13.0 24.0 0.00 0.00 0.00 48 1018.8
20260903140205 75 252 13.0 24.0 0.00 0.00 0.00 50 1018.8
20260903135706 75 229 11.0 23.0 0.00 0.00 0.00 49 1018.9
20260903135206 75 269 10.0 23.0 0.00 0.00 0.00 50 1018.7
20260903134706 75 226 10.0 18.0 0.00 0.00 0.00 49 1018.9
20260903134208 74 250 9.0 18.0 0.00 0.00 0.00 51 1019.1
20260903133705 74 243 11.0 18.0 0.00 0.00 0.00 50 1019.2
20260903133205 74 240 10.0 17.0 0.00 0.00 0.00 50 1019.1
20260903132706 74 250 10.0 21.0 0.00 0.00 0.00 51 1019.2
20260903132208 73 222 10.0 21.0 0.00 0.00 0.00 51 1019.3
20260903131205 73 224 11.0 19.0 0.00 0.00 0.00 51 1019.3
20260903130705 73 219 11.0 19.0 0.00 0.00 0.00 51 1019.4
20260903130208 73 229 10.0 17.0 0.00 0.00 0.00 52 1019.4
20260903125705 73 236 9.0 17.0 0.00 0.00 0.00 52 1019.4
20260903125205 73 240 8.0 17.0 0.00 0.00 0.00 52 1019.4
20260903124206 72 210 11.0 17.0 0.00 0.00 0.00 52 1019.7
20260903123205 73 231 9.0 18.0 0.00 0.00 0.00 52 1019.7
20260903122205 73 248 10.0 18.0 0.00 0.00 0.00 51 1019.6
20260903121705 73 214 9.0 15.0 0.00 0.00 0.00 51 1019.7
20260903121206 73 241 8.0 15.0 0.00 0.00 0.00 51 1019.7
20260903120733 73 207 7.0 11.0 0.00 0.00 0.00 51 1019.6
20260903120204 73 258 7.0 13.0 0.00 0.00 0.00 50 1019.7
20260903115706 74 197 8.0 16.0 0.00 0.00 0.00 50 1019.7
20260903115205 74 229 9.0 18.0 0.00 0.00 0.00 48 1019.8
20260903114705 75 250 11.0 18.0 0.00 0.00 0.00 47 1019.8
20260903114205 74 243 11.0 18.0 0.00 0.00 0.00 48 1019.9
20260903113705 74 219 10.0 19.0 0.00 0.00 0.00 48 1020.0
20260903113205 74 239 11.0 19.0 0.00 0.00 0.00 48 1020.0
20260903112705 75 184 11.0 19.0 0.00 0.00 0.00 48 1020.0
20260903112208 73 207 10.0 15.0 0.00 0.00 0.00 50 1019.9
20260903111705 72 229 8.0 20.0 0.00 0.00 0.00 50 1020.0
20260903111205 72 222 9.0 20.0 0.00 0.00 0.00 51 1020.1
20260903110204 73 258 11.0 20.0 0.00 0.00 0.00 49 1020.0
20260903105705 73 234 10.0 20.0 0.00 0.00 0.00 50 1020.2
20260903105205 73 226 11.0 19.0 0.00 0.00 0.00 49 1020.2
20260903104705 73 210 10.0 16.0 0.00 0.00 0.00 50 1020.2
20260903104205 73 212 9.0 14.0 0.00 0.00 0.00 50 1020.5
20260903103705 73 239 8.0 12.0 0.00 0.00 0.00 52 1020.4
20260903103205 72 231 7.0 15.0 0.00 0.00 0.00 52 1020.5
20260903102705 71 205 8.0 17.0 0.00 0.00 0.00 54 1020.6
20260903102205 70 258 8.0 17.0 0.00 0.00 0.00 55 1020.8
20260903101705 70 255 9.0 17.0 0.00 0.00 0.00 54 1020.8
20260903101206 70 248 9.0 16.0 0.00 0.00 0.00 53 1020.8
20260903100705 71 271 7.0 12.0 0.00 0.00 0.00 54 1020.9
20260903095705 71 250 7.0 18.0 0.00 0.00 0.00 55 1021.1
20260903095206 71 264 9.0 18.0 0.00 0.00 0.00 56 1020.9
20260903094704 71 243 9.0 15.0 0.00 0.00 0.00 54 1020.9
20260903093705 71 194 7.0 14.0 0.00 0.00 0.00 55 1020.9
20260903093206 70 203 6.0 12.0 0.00 0.00 0.00 60 1020.9
20260903091206 66 276 5.0 10.0 0.00 0.00 0.00 64 1021.4
20260903090705 66 215 5.0 8.0 0.00 0.00 0.00 66 1021.2
20260903090205 65 220 4.0 7.0 0.00 0.00 0.00 66 1021.2
20260903085706 65 229 4.0 7.0 0.00 0.00 0.00 65 1021.3
20260903085206 65 240 4.0 7.0 0.00 0.00 0.00 66 1021.1
20260903084705 65 219 4.0 7.0 0.00 0.00 0.00 67 1020.9
20260903084206 65 196 3.0 6.0 0.00 0.00 0.00 67 1021.1
20260903083705 64 250 2.0 6.0 0.00 0.00 0.00 68 1020.9
20260903083205 64 252 3.0 6.0 0.00 0.00 0.00 69 1021.1
20260903082206 63 205 3.0 5.0 0.00 0.00 0.00 70 1020.9
20260903081705 63 302 3.0 5.0 0.00 0.00 0.00 71 1020.9
20260903081206 62 236 3.0 6.0 0.00 0.00 0.00 71 1020.9
20260903080705 62 236 3.0 6.0 0.00 0.00 0.00 72 1021.1
20260903075206 61 264 3.0 7.0 0.00 0.00 0.00 73 1021.3
20260903074706 61 250 3.0 7.0 0.00 0.00 0.00 73 1021.3
20260903074206 61 245 2.0 4.0 0.00 0.00 0.00 73 1021.1
20260903073705 61 233 2.0 4.0 0.00 0.00 0.00 74 1021.1
20260903073205 61 269 2.0 4.0 0.00 0.00 0.00 75 1020.9
20260903072705 60 260 2.0 3.0 0.00 0.00 0.00 75 1020.8
20260903072205 60 135 2.0 4.0 0.00 0.00 0.00 75 1020.9
20260903071705 60 222 2.0 4.0 0.00 0.00 0.00 77 1020.8
20260903071205 59 240 2.0 4.0 0.00 0.00 0.00 80 1020.8
20260903070705 58 212 2.0 3.0 0.00 0.00 0.00 83 1020.9
20260903070205 58 250 1.0 3.0 0.00 0.00 0.00 85 1021.4
20260903065706 57 295 1.0 4.0 0.00 0.00 0.00 87 1021.5
20260903065205 56 15 2.0 4.0 0.00 0.00 0.00 89 1021.4
20260903064705 55 201 3.0 4.0 0.00 0.00 0.00 90 1021.4
20260903064205 55 231 2.0 4.0 0.00 0.00 0.00 90 1021.5
20260903063706 54 233 1.0 3.0 0.00 0.00 0.00 89 1021.6
20260903063205 54 306 1.0 2.0 0.00 0.00 0.00 89 1021.5
20260903062706 53 46 1.0 2.0 0.00 0.00 0.00 89 1021.2
20260903062206 53 222 1.0 2.0 0.00 0.00 0.00 89 1020.9
20260903061705 53 222 1.0 2.0 0.00 0.00 0.00 89 1020.8
20260903061205 53 1 0.0 1.0 0.00 0.00 0.00 88 1021.1
20260903060706 52 269 0.0 2.0 0.00 0.00 0.00 88 1020.9
20260903060205 52 222 0.0 2.0 0.00 0.00 0.00 88 1020.9
20260903055705 52 46 1.0 2.0 0.00 0.00 0.00 87 1021.1
20260903055205 52 222 1.0 4.0 0.00 0.00 0.00 87 1021.1
20260903054705 52 269 1.0 4.0 0.00 0.00 0.00 87 1021.1
20260903054205 51 269 2.0 4.0 0.00 0.00 0.00 87 1020.9
20260903053705 51 70 2.0 3.0 0.00 0.00 0.00 86 1020.8
20260903053206 51 89 2.0 2.0 0.00 0.00 0.00 86 1021.2
20260903052705 51 89 1.0 2.0 0.00 0.00 0.00 86 1021.3
20260903052204 51 108 1.0 2.0 0.00 0.00 0.00 86 1021.3
20260903051705 51 89 1.0 2.0 0.00 0.00 0.00 86 1021.1
20260903051205 51 89 0.0 2.0 0.00 0.00 0.00 86 1021.2
20260903050705 51 63 0.0 1.0 0.00 0.00 0.00 86 1021.3
20260903045706 51 1 0.0 1.0 0.00 0.00 0.00 85 1021.1
20260903045205 52 1 0.0 1.0 0.00 0.00 0.00 85 1020.9
20260903044205 52 46 0.0 2.0 0.00 0.00 0.00 85 1020.8
20260903043706 52 1 1.0 2.0 0.00 0.00 0.00 85 1020.7
20260903043205 52 178 1.0 2.0 0.00 0.00 0.00 85 1020.6
20260903042706 52 89 1.0 2.0 0.00 0.00 0.00 85 1020.7
20260903041705 52 135 1.0 2.0 0.00 0.00 0.00 85 1020.7
20260903041205 52 135 1.0 2.0 0.00 0.00 0.00 84 1020.6
20260903040724 52 53 1.0 2.0 0.00 0.00 0.00 84 1020.6
20260903040205 53 89 1.0 2.0 0.00 0.00 0.00 84 1020.7
20260903035705 53 89 1.0 3.0 0.00 0.00 0.00 84 1020.7
20260903035206 53 117 1.0 3.0 0.00 0.00 0.00 84 1020.7
20260903034731 53 63 1.0 2.0 0.00 0.00 0.00 84 1020.7
20260903034227 53 89 1.0 2.0 0.00 0.00 0.00 84 1020.7
20260903033705 53 101 1.0 2.0 0.00 0.00 0.00 84 1020.8
20260903033205 53 89 0.0 2.0 0.00 0.00 0.00 84 1020.9
20260903032705 53 89 0.0 2.0 0.00 0.00 0.00 84 1020.9
20260903031707 53 1 0.0 2.0 0.00 0.00 0.00 83 1020.9
20260903031211 53 178 0.0 2.0 0.00 0.00 0.00 83 1020.9
20260903030705 54 28 0.0 2.0 0.00 0.00 0.00 83 1020.9
20260903025206 54 28 1.0 2.0 0.00 0.00 0.00 83 1020.9
20260903024706 54 89 1.0 2.0 0.00 0.00 0.00 83 1020.8
20260903024205 54 40 1.0 2.0 0.00 0.00 0.00 83 1020.8
20260903023705 54 20 1.0 2.0 0.00 0.00 0.00 83 1020.8
20260903023205 54 151 1.0 2.0 0.00 0.00 0.00 82 1020.8
20260903022705 54 135 1.0 2.0 0.00 0.00 0.00 82 1020.9
20260903022206 54 35 1.0 2.0 0.00 0.00 0.00 82 1021.1
20260903021707 54 46 1.0 1.0 0.00 0.00 0.00 82 1020.9
20260903021205 54 89 1.0 2.0 0.00 0.00 0.00 82 1020.9
20260903020205 55 46 1.0 2.0 0.00 0.00 0.00 81 1020.9
20260903015705 55 63 0.0 2.0 0.00 0.00 0.00 81 1021.1
20260903014705 55 89 0.0 1.0 0.00 0.00 0.00 81 1020.9
20260903013705 55 46 0.0 2.0 0.00 0.00 0.00 80 1020.9
20260903013205 55 89 0.0 2.0 0.00 0.00 0.00 80 1021.1
20260903012705 55 46 0.0 3.0 0.00 0.00 0.00 80 1021.2
20260903012205 55 63 1.0 3.0 0.00 0.00 0.00 80 1021.1
20260903011705 56 117 2.0 3.0 0.00 0.00 0.00 79 1021.1
20260903011205 56 58 2.0 3.0 0.00 0.00 0.00 79 1020.9
20260903010706 56 89 2.0 3.0 0.00 0.00 0.00 78 1021.1
20260903005706 56 135 2.0 3.0 0.00 0.00 0.00 78 1021.1
20260903005206 56 63 2.0 3.0 0.00 0.00 0.00 77 1020.9
20260903004705 56 79 2.0 3.0 0.00 0.00 0.00 77 1020.9
20260903004206 57 104 1.0 2.0 0.00 0.00 0.00 77 1021.2
20260903003705 57 81 1.0 2.0 0.00 0.00 0.00 76 1021.2
20260903003205 57 63 1.0 2.0 0.00 0.00 0.00 76 1021.2
20260903002705 57 46 1.0 2.0 0.00 0.00 0.00 75 1021.3
20260903002206 57 63 0.0 1.0 0.00 0.00 0.00 75 1021.3
20260903001705 57 89 0.0 1.0 0.00 0.00 0.00 75 1021.3
20260903001205 58 46 0.0 1.0 0.00 0.00 0.00 75 1021.3
20260903000705 58 1 0.0 1.0 0.00 0.00 0.00 75 1021.1
20260903000205 58 46 0.0 1.0 0.00 0.00 0.00 74 1021.1
20260902235206 58 89 1.0 1.0 0.00 0.00 0.00 74 1021.1
20260902234705 58 46 0.0 2.0 0.00 0.00 0.00 74 1021.1
20260902233705 59 46 1.0 2.0 0.00 0.00 0.00 74 1021.2
20260902233205 59 35 0.0 1.0 0.00 0.00 0.00 73 1021.3
20260902232706 59 46 0.0 1.0 0.00 0.00 0.00 73 1021.3
20260902231705 60 46 0.0 2.0 0.00 0.00 0.00 73 1021.2
20260902231206 60 117 0.0 2.0 0.00 0.00 0.00 73 1021.3
20260902230727 60 269 1.0 2.0 0.00 0.00 0.00 73 1021.3
20260902230205 60 89 1.0 2.0 0.00 0.00 0.00 72 1021.2
20260902225705 60 51 1.0 3.0 0.00 0.00 0.00 72 1021.2
20260902225205 60 1 1.0 3.0 0.00 0.00 0.00 72 1021.2
20260902224705 60 76 1.0 3.0 0.00 0.00 0.00 72 1021.2
20260902224206 60 89 2.0 3.0 0.00 0.00 0.00 71 1021.2
20260902223705 61 63 1.0 2.0 0.00 0.00 0.00 70 1021.2
20260902222705 61 89 0.0 2.0 0.00 0.00 0.00 69 1021.3
20260902222206 61 72 1.0 2.0 0.00 0.00 0.00 69 1021.3
20260902221706 61 89 1.0 3.0 0.00 0.00 0.00 69 1021.2
20260902221205 61 46 1.0 3.0 0.00 0.00 0.00 68 1021.1
20260902220205 62 68 1.0 2.0 0.00 0.00 0.00 67 1020.9
20260902215705 62 117 0.0 2.0 0.00 0.00 0.00 67 1020.9
20260902215206 62 46 1.0 2.0 0.00 0.00 0.00 66 1020.8
20260902214705 62 15 1.0 2.0 0.00 0.00 0.00 66 1020.8
20260902213705 63 108 1.0 2.0 0.00 0.00 0.00 66 1020.8
20260902213205 63 108 1.0 2.0 0.00 0.00 0.00 65 1020.8
20260902212705 64 28 1.0 2.0 0.00 0.00 0.00 64 1020.8
20260902212206 64 1 1.0 2.0 0.00 0.00 0.00 63 1020.9
20260902211705 64 1 1.0 2.0 0.00 0.00 0.00 63 1020.9
20260902211206 64 11 1.0 2.0 0.00 0.00 0.00 63 1020.9
20260902210705 64 20 1.0 2.0 0.00 0.00 0.00 62 1020.9
20260902210205 64 28 1.0 1.0 0.00 0.00 0.00 62 1020.9
20260902205705 65 63 1.0 2.0 0.00 0.00 0.00 61 1020.8
20260902205205 65 15 0.0 2.0 0.00 0.00 0.00 61 1021.1
20260902204705 65 35 0.0 2.0 0.00 0.00 0.00 61 1020.9
20260902204207 65 331 0.0 1.0 0.00 0.00 0.00 61 1020.9
20260902203705 65 324 0.0 2.0 0.00 0.00 0.00 60 1020.9
20260902203206 65 1 0.0 2.0 0.00 0.00 0.00 60 1020.8
20260902202705 66 63 1.0 3.0 0.00 0.00 0.00 59 1020.8
20260902202234 66 35 1.0 3.0 0.00 0.00 0.00 59 1020.7
20260902201705 66 72 2.0 4.0 0.00 0.00 0.00 59 1020.8
20260902201205 66 1 2.0 5.0 0.00 0.00 0.00 59 1020.8
20260902200705 66 28 2.0 5.0 0.00 0.00 0.00 59 1020.8
20260902200205 67 344 2.0 6.0 0.00 0.00 0.00 59 1020.8
20260902195706 67 21 3.0 6.0 0.00 0.00 0.00 58 1020.8
20260902195205 67 20 3.0 6.0 0.00 0.00 0.00 57 1020.7
20260902194705 67 14 3.0 6.0 0.00 0.00 0.00 56 1020.8
20260902194206 67 35 2.0 6.0 0.00 0.00 0.00 56 1020.7
20260902193705 67 6 2.0 5.0 0.00 0.00 0.00 56 1020.6
20260902193205 68 6 2.0 5.0 0.00 0.00 0.00 56 1020.6
20260902192705 68 32 2.0 6.0 0.00 0.00 0.00 55 1020.5
20260902192206 68 72 2.0 8.0 0.00 0.00 0.00 55 1020.5
20260902191706 68 347 3.0 8.0 0.00 0.00 0.00 55 1020.4
20260902191206 68 354 3.0 8.0 0.00 0.00 0.00 55 1020.4
20260902190206 68 310 3.0 7.0 0.00 0.00 0.00 53 1020.2
20260902185705 68 253 3.0 7.0 0.00 0.00 0.00 53 1020.0
20260902184705 69 283 3.0 7.0 0.00 0.00 0.00 54 1020.0
20260902184205 69 278 3.0 7.0 0.00 0.00 0.00 53 1020.1
20260902183705 69 248 3.0 10.0 0.00 0.00 0.00 53 1019.9
20260902183206 69 295 3.0 10.0 0.00 0.00 0.00 53 1019.8
20260902182705 69 276 4.0 8.0 0.00 0.00 0.00 53 1019.9
20260902182205 69 32 4.0 8.0 0.00 0.00 0.00 53 1019.8
20260902181705 69 257 4.0 9.0 0.00 0.00 0.00 53 1019.7
20260902180205 70 269 5.0 12.0 0.00 0.00 0.00 53 1019.5
20260902175705 70 295 5.0 12.0 0.00 0.00 0.00 52 1019.5
20260902174704 71 248 3.0 9.0 0.00 0.00 0.00 53 1019.4
20260902174208 71 295 4.0 8.0 0.00 0.00 0.00 53 1019.4
20260902173206 71 252 4.0 8.0 0.00 0.00 0.00 53 1019.3
20260902172705 71 283 3.0 10.0 0.00 0.00 0.00 52 1019.3
20260902172205 71 239 4.0 10.0 0.00 0.00 0.00 52 1019.3
20260902171707 71 290 4.0 10.0 0.00 0.00 0.00 52 1019.3
20260902171205 72 262 4.0 8.0 0.00 0.00 0.00 51 1019.2
20260902170725 72 238 4.0 8.0 0.00 0.00 0.00 51 1019.3
20260902170205 72 248 5.0 8.0 0.00 0.00 0.00 51 1019.3
20260902165705 72 269 5.0 9.0 0.00 0.00 0.00 50 1019.3
20260902165206 73 286 5.0 13.0 0.00 0.00 0.00 49 1019.3
20260902164708 73 255 6.0 13.0 0.00 0.00 0.00 49 1019.3
20260902164205 73 246 6.0 13.0 0.00 0.00 0.00 49 1019.2
20260902163705 73 291 6.0 12.0 0.00 0.00 0.00 49 1019.2
20260902163205 73 252 6.0 11.0 0.00 0.00 0.00 49 1019.2
20260902162705 73 257 5.0 10.0 0.00 0.00 0.00 50 1019.3
20260902162206 73 255 5.0 11.0 0.00 0.00 0.00 50 1019.2
20260902161705 73 262 5.0 11.0 0.00 0.00 0.00 49 1019.3
20260902160705 74 231 7.0 12.0 0.00 0.00 0.00 48 1019.3
20260902160205 73 226 7.0 13.0 0.00 0.00 0.00 49 1019.3